{"data":{"norad_id":64556,"intl_designator":"2025-135AE","name":"TRANSPORTER-14 OBJECT AE","alt_names":[],"object_type":"PAYLOAD","status":"ACTIVE","operator":null,"country":"TBD","launch_date":"2025-06-23","launch_site_code":"AFWTR","launch_vehicle":null,"mission":null,"orbit_class":"UNKNOWN","rcs_meters":null,"size_class":null,"mass_kg":null,"dimensions":null,"purposes":[],"wikipedia_slug":null,"has_3d_model":false,"image_url":null,"decayed_at":null,"tle_current":{"epoch":"2026-09-21T20:56:10.250304Z","epoch_age_seconds":63235,"freshness":"FRESH","line1":"1 64556U 25135AE  26264.87234086  .00006285  00000+0  23865-3 0  9997","line2":"2 64556  97.4824  21.5937 0002880  85.9695 274.1873 15.27185596 69690","mean_motion":15.27185596,"eccentricity":0.000288,"inclination_deg":97.4824,"raan_deg":21.5937,"arg_perigee_deg":85.9695,"mean_anomaly_deg":274.1873,"bstar":0.00023865,"rev_number":6969,"period_min":94.291093615055,"perigee_km":482.25397586492,"apogee_km":486.20669945141,"semimajor_km":6862.3673376582,"source":"CELESTRAK","updated_at":"2026-09-22T09:00:29.846338Z"}}}